| time (UTC) | temp C | wind direction | speed KPH | gust KPH | rain 1hr cm | rain 24hr cm | rain mn cm | humidity % | barometer mb |
| 20260510224505 | 27 | 180 | 0.0 | 3.2 | 0.00 | 0.00 | 0.00 | 25 | 1013.4 |
| 20260510223104 | 27 | 197 | 0.0 | 3.2 | 0.00 | 0.00 | 0.00 | 25 | 1013.4 |
| 20260510221504 | 27 | 197 | 0.0 | 4.8 | 0.00 | 0.00 | 0.00 | 25 | 1013.4 |
| 20260510220004 | 28 | 347 | 0.0 | 3.2 | 0.00 | 0.00 | 0.00 | 25 | 1013.4 |
| 20260510214502 | 28 | 162 | 1.6 | 6.4 | 0.00 | 0.00 | 0.00 | 25 | 1013.3 |
| 20260510213100 | 28 | 321 | 0.0 | 4.8 | 0.00 | 0.00 | 0.00 | 26 | 1013.3 |
| 20260510211508 | 28 | 315 | 0.0 | 4.8 | 0.00 | 0.00 | 0.00 | 26 | 1013.3 |
| 20260510210006 | 28 | 192 | 0.0 | 4.8 | 0.00 | 0.00 | 0.00 | 27 | 1013.3 |
| 20260510204506 | 28 | 317 | 0.0 | 8.0 | 0.00 | 0.00 | 0.00 | 27 | 1013.3 |
| 20260510203009 | 28 | 341 | 0.0 | 6.4 | 0.00 | 0.00 | 0.00 | 26 | 1013.2 |
| 20260510201534 | 28 | 204 | 0.0 | 6.4 | 0.00 | 0.00 | 0.00 | 26 | 1013.4 |
| 20260510200033 | 28 | 340 | 0.0 | 3.2 | 0.00 | 0.00 | 0.00 | 27 | 1013.4 |
| 20260510194531 | 27 | 191 | 3.2 | 8.0 | 0.00 | 0.00 | 0.00 | 27 | 1013.5 |
| 20260510193029 | 27 | 192 | 3.2 | 16.1 | 0.00 | 0.00 | 0.00 | 29 | 1013.5 |
| 20260510191529 | 27 | 104 | 0.0 | 0.0 | 0.00 | 0.00 | 0.00 | 30 | 1013.7 |
| 20260510190040 | 28 | 321 | 0.0 | 0.0 | 0.00 | 0.00 | 0.00 | 27 | 1013.9 |
| 20260510184521 | 28 | 207 | 0.0 | 0.0 | 0.00 | 0.00 | 0.00 | 27 | 1014.0 |
| 20260510183023 | 27 | 342 | 0.0 | 0.0 | 0.00 | 0.00 | 0.00 | 30 | 1014.2 |
| 20260510181516 | 27 | 186 | 0.0 | 0.0 | 0.00 | 0.00 | 0.00 | 32 | 1014.3 |
| 20260510180012 | 27 | 205 | 0.0 | 0.0 | 0.00 | 0.00 | 0.00 | 34 | 1014.4 |
| 20260510174508 | 26 | 178 | 0.0 | 0.0 | 0.00 | 0.00 | 0.00 | 35 | 1014.3 |
| 20260510173007 | 26 | 80 | 0.0 | 0.0 | 0.00 | 0.00 | 0.00 | 39 | 1014.4 |
| 20260510171505 | 25 | 80 | 0.0 | 0.0 | 0.00 | 0.00 | 0.00 | 40 | 1014.5 |
| 20260510170006 | 25 | 46 | 0.0 | 0.0 | 0.00 | 0.00 | 0.00 | 36 | 1014.5 |
| 20260510164536 | 25 | 158 | 0.0 | 0.0 | 0.00 | 0.00 | 0.00 | 38 | 1014.5 |
| 20260510163034 | 25 | 42 | 0.0 | 0.0 | 0.00 | 0.00 | 0.00 | 38 | 1014.6 |
| 20260510161528 | 25 | 62 | 0.0 | 0.0 | 0.00 | 0.00 | 0.00 | 40 | 1014.8 |
| 20260510160026 | 25 | 9 | 0.0 | 0.0 | 0.00 | 0.00 | 0.00 | 43 | 1014.8 |
| 20260510154531 | 24 | 5 | 0.0 | 0.0 | 0.00 | 0.00 | 0.00 | 41 | 1015.0 |
| 20260510153039 | 24 | 29 | 0.0 | 0.0 | 0.00 | 0.00 | 0.00 | 41 | 1015.1 |
| 20260510151549 | 23 | 102 | 0.0 | 0.0 | 0.00 | 0.00 | 0.00 | 50 | 1015.0 |
| 20260510150105 | 23 | 37 | 0.0 | 0.0 | 0.00 | 0.00 | 0.00 | 53 | 1015.0 |
| 20260510144606 | 23 | 74 | 0.0 | 0.0 | 0.00 | 0.00 | 0.00 | 52 | 1014.9 |
| 20260510143039 | 22 | 54 | 0.0 | 0.0 | 0.00 | 0.00 | 0.00 | 55 | 1014.9 |
| 20260510141544 | 21 | 37 | 0.0 | 0.0 | 0.00 | 0.00 | 0.00 | 57 | 1014.8 |
| 20260510140038 | 21 | 355 | 0.0 | 0.0 | 0.00 | 0.00 | 0.00 | 60 | 1014.9 |
| 20260510134535 | 21 | 360 | 0.0 | 0.0 | 0.00 | 0.00 | 0.00 | 62 | 1015.1 |
| 20260510133035 | 20 | 261 | 0.0 | 0.0 | 0.00 | 0.00 | 0.00 | 65 | 1014.9 |
| 20260510131532 | 19 | 260 | 0.0 | 0.0 | 0.00 | 0.00 | 0.00 | 67 | 1014.7 |
| 20260510130031 | 18 | 271 | 0.0 | 0.0 | 0.00 | 0.00 | 0.00 | 68 | 1014.5 |
| 20260510124502 | 18 | 330 | 0.0 | 0.0 | 0.00 | 0.00 | 0.00 | 70 | 1014.4 |
| 20260510123002 | 17 | 298 | 0.0 | 0.0 | 0.00 | 0.00 | 0.00 | 71 | 1014.4 |
| 20260510121603 | 17 | 253 | 0.0 | 0.0 | 0.00 | 0.00 | 0.00 | 76 | 1014.2 |
| 20260510120056 | 17 | 256 | 0.0 | 0.0 | 0.00 | 0.00 | 0.00 | 77 | 1014.2 |
| 20260510114555 | 16 | 351 | 0.0 | 0.0 | 0.00 | 0.00 | 0.00 | 78 | 1014.1 |
| 20260510113052 | 16 | 200 | 0.0 | 0.0 | 0.00 | 0.00 | 0.00 | 77 | 1013.8 |
| 20260510111552 | 16 | 200 | 0.0 | 0.0 | 0.00 | 0.00 | 0.00 | 77 | 1013.5 |
| 20260510110051 | 16 | 197 | 0.0 | 0.0 | 0.00 | 0.00 | 0.00 | 77 | 1013.5 |
| 20260510104557 | 15 | 197 | 0.0 | 0.0 | 0.00 | 0.00 | 0.00 | 77 | 1013.2 |
| 20260510103045 | 15 | 197 | 0.0 | 0.0 | 0.00 | 0.00 | 0.00 | 76 | 1013.0 |
| 20260510101550 | 16 | 197 | 0.0 | 0.0 | 0.00 | 0.00 | 0.00 | 76 | 1012.8 |
| 20260510100014 | 16 | 197 | 0.0 | 0.0 | 0.00 | 0.00 | 0.00 | 77 | 1012.7 |
| 20260510094513 | 16 | 197 | 0.0 | 0.0 | 0.00 | 0.00 | 0.00 | 77 | 1012.6 |
| 20260510093009 | 16 | 197 | 0.0 | 0.0 | 0.00 | 0.00 | 0.00 | 77 | 1012.3 |
| 20260510091507 | 16 | 197 | 0.0 | 0.0 | 0.00 | 0.00 | 0.00 | 76 | 1012.0 |
| 20260510090008 | 16 | 197 | 0.0 | 0.0 | 0.00 | 0.00 | 0.00 | 77 | 1011.9 |
| 20260510084520 | 15 | 197 | 0.0 | 0.0 | 0.00 | 0.00 | 0.00 | 76 | 1011.8 |
| 20260510083005 | 16 | 197 | 0.0 | 0.0 | 0.00 | 0.00 | 0.00 | 76 | 1011.8 |
| 20260510081505 | 16 | 197 | 0.0 | 0.0 | 0.00 | 0.00 | 0.00 | 76 | 1011.8 |
| 20260510080002 | 15 | 197 | 0.0 | 0.0 | 0.00 | 0.00 | 0.00 | 75 | 1011.7 |
| 20260510074502 | 15 | 197 | 0.0 | 0.0 | 0.00 | 0.00 | 0.00 | 75 | 1011.7 |
| 20260510073059 | 15 | 197 | 0.0 | 0.0 | 0.00 | 0.00 | 0.00 | 75 | 1011.7 |
| 20260510071601 | 16 | 197 | 0.0 | 0.0 | 0.00 | 0.00 | 0.00 | 75 | 1011.5 |
| 20260510070059 | 16 | 197 | 0.0 | 0.0 | 0.00 | 0.00 | 0.00 | 75 | 1011.3 |
| 20260510064603 | 16 | 197 | 0.0 | 0.0 | 0.00 | 0.00 | 0.00 | 75 | 1011.7 |
| 20260510063055 | 15 | 197 | 0.0 | 0.0 | 0.00 | 0.00 | 0.00 | 72 | 1011.6 |
| 20260510061603 | 16 | 197 | 0.0 | 0.0 | 0.00 | 0.00 | 0.00 | 72 | 1011.4 |
| 20260510060054 | 16 | 197 | 0.0 | 0.0 | 0.00 | 0.00 | 0.00 | 72 | 1011.6 |
| 20260510054553 | 16 | 197 | 0.0 | 0.0 | 0.00 | 0.00 | 0.00 | 72 | 1011.9 |
| 20260510053055 | 16 | 197 | 0.0 | 0.0 | 0.00 | 0.00 | 0.00 | 72 | 1011.9 |
| 20260510051548 | 16 | 197 | 0.0 | 0.0 | 0.00 | 0.00 | 0.00 | 72 | 1012.1 |
| 20260510050047 | 16 | 197 | 0.0 | 0.0 | 0.00 | 0.00 | 0.00 | 72 | 1012.1 |
| 20260510044549 | 16 | 197 | 0.0 | 0.0 | 0.00 | 0.00 | 0.00 | 72 | 1012.2 |
| 20260510043016 | 16 | 197 | 0.0 | 0.0 | 0.00 | 0.00 | 0.00 | 72 | 1012.3 |
| 20260510041515 | 16 | 197 | 0.0 | 0.0 | 0.00 | 0.00 | 0.00 | 69 | 1012.1 |
| 20260510040048 | 16 | 197 | 0.0 | 0.0 | 0.00 | 0.00 | 0.00 | 69 | 1012.2 |
| 20260510034550 | 16 | 197 | 0.0 | 0.0 | 0.00 | 0.00 | 0.00 | 67 | 1012.0 |
| 20260510033040 | 16 | 197 | 0.0 | 0.0 | 0.00 | 0.00 | 0.00 | 67 | 1011.9 |
| 20260510031554 | 16 | 197 | 0.0 | 0.0 | 0.00 | 0.00 | 0.00 | 66 | 1011.9 |
| 20260510030038 | 17 | 197 | 0.0 | 0.0 | 0.00 | 0.00 | 0.00 | 66 | 1011.9 |
| 20260510024537 | 17 | 197 | 0.0 | 0.0 | 0.00 | 0.00 | 0.00 | 66 | 1011.9 |
| 20260510023038 | 17 | 197 | 0.0 | 0.0 | 0.00 | 0.00 | 0.00 | 65 | 1011.7 |
| 20260510021535 | 17 | 197 | 0.0 | 0.0 | 0.00 | 0.00 | 0.00 | 65 | 1011.6 |
| 20260510020030 | 17 | 197 | 0.0 | 0.0 | 0.00 | 0.00 | 0.00 | 65 | 1011.3 |
| 20260510014527 | 18 | 197 | 0.0 | 0.0 | 0.00 | 0.00 | 0.00 | 64 | 1011.5 |
| 20260510013110 | 18 | 197 | 0.0 | 0.0 | 0.00 | 0.00 | 0.00 | 64 | 1011.1 |
| 20260510011555 | 19 | 197 | 0.0 | 0.0 | 0.00 | 0.00 | 0.00 | 64 | 1010.7 |
| 20260510010051 | 19 | 197 | 0.0 | 0.0 | 0.00 | 0.00 | 0.00 | 65 | 1010.7 |
| 20260510004551 | 20 | 197 | 0.0 | 0.0 | 0.00 | 0.00 | 0.00 | 64 | 1010.5 |
| 20260510003051 | 20 | 197 | 0.0 | 0.0 | 0.00 | 0.00 | 0.00 | 63 | 1010.4 |
| 20260510001553 | 21 | 197 | 0.0 | 0.0 | 0.00 | 0.00 | 0.00 | 62 | 1010.5 |
| 20260510000036 | 21 | 197 | 0.0 | 0.0 | 0.00 | 0.00 | 0.00 | 61 | 1010.5 |
| 20260509234538 | 21 | 197 | 0.0 | 1.6 | 0.00 | 0.00 | 0.00 | 60 | 1010.4 |
| 20260509233031 | 22 | 197 | 0.0 | 0.0 | 0.00 | 0.00 | 0.00 | 59 | 1010.2 |
| 20260509231530 | 22 | 360 | 0.0 | 0.0 | 0.00 | 0.00 | 0.00 | 59 | 1009.9 |
| 20260509230015 | 22 | 360 | 0.0 | 3.2 | 0.00 | 0.00 | 0.00 | 58 | 1009.7 |